Terminal Aerodrome Forecast
Issued by NWS

Home | Current Version | Previous Version | Text Only | Print | Product List | Glossary On
Versions: 1 2 3 4 5 6 7 8 9 10 11 12 13 14 15 16 17
312
FTUS42 KMLB 181058 AAC
TAFLEE
TAF AMD
KLEE 181058Z 1811/1906 00000KT 2SM BR BKN003
      TEMPO 1811/1813 1/4SM FG VV003
     FM181500 21006KT P6SM FEW035 BKN250
     FM181800 25006KT P6SM SCT035 BKN250
     FM182300 VRB04KT P6SM FEW045 BKN250=

USA.gov is the U.S. government's official web portal to all federal, state and local government web resources and services.